Location: Unspecified
(0.0000°N, 0.0000°E)
Time: 23:02:36
(UTC+00:00)

Transit 2A Rocket - Visible Passes

Search period start: 27 November 2014 00:00
Search period end: 07 December 2014 00:00
Orbit: 588 x 919 km, 66.7° (Epoch: 26 November)

Date Brightness Start Highest point End Pass type
(mag) Time Alt. Az. Time Alt. Az. Time Alt. Az.
27 Nov 5.4 18:55:13 10° N 19:01:09 53° ENE 19:06:58 10° SE visible
27 Nov 8.1 20:40:54 10° W 20:43:34 13° WSW 20:46:13 10° SW visible
28 Nov 6.2 18:14:15 10° NNE 18:19:20 28° ENE 18:24:21 10° SE visible
28 Nov 7.4 19:56:49 10° NW 20:01:46 26° WSW 20:06:38 10° SSW visible
29 Nov 6.2 19:14:06 10° NW 19:20:00 50° WSW 19:25:45 10° S visible
30 Nov 5.3 18:32:05 10° NNW 18:38:13 86° ENE 18:44:12 10° SSE visible
01 Dec 8.3 19:35:21 10° WNW 19:38:49 16° WSW 19:42:15 10° SW visible
02 Dec 7.4 18:51:46 10° NW 18:57:02 31° WSW 19:02:10 10° S visible
03 Dec 6.1 18:09:15 10° NNW 18:15:15 59° WSW 18:21:05 10° S visible
04 Dec 7.6 04:59:43 10° SSE 05:02:49 20° ESE 05:05:57 10° ENE visible
05 Dec 8.4 18:30:00 10° WNW 18:34:04 19° WSW 18:38:03 10° SSW visible
06 Dec 4.5 05:17:15 10° SSW 05:21:30 89° WNW 05:25:55 10° NNE visible
